Theta_e
314 316 317 315 315 316 313 312 313 314 315 316 317 316 315 315 317 316 316 332 335 335 335 335 334 336 338 339 338 338 339 342 343 344 346 346 346 346 345 344 346 350 349
314 315 316 314 314 314 313 311 311 312 313 314 315 314 314 315 316 316 320 325 336 334 332 332 333 334 336 336 337 337 336 337 340 343 343 343 344 344 344 344 345 347 347
315 315 314 312 313 313 312 311 312 312 312 313 312 312 313 315 318 318 321 323 325 333 331 330 328 329 331 332 333 333 334 334 334 336 342 342 342 343 343 344 344 345 347
315 314 313 312 314 313 311 310 310 309 309 310 309 309 310 315 317 317 321 322 323 323 327 329 327 326 326 327 328 328 329 331 331 331 335 337 340 341 341 343 343 344 346
316 314 312 312 313 311 310 309 308 307 306 307 309 310 309 314 314 318 318 318 319 320 320 326 328 326 326 326 328 328 328 328 328 329 332 335 336 338 341 341 341 341 343
316 314 312 311 312 309 308 307 306 307 305 306 310 310 308 310 310 313 314 317 317 318 319 319 318 319 328 325 327 327 328 329 327 329 331 333 334 336 338 338 338 339 342
316 314 312 312 312 308 307 307 306 305 305 307 303 306 306 310 312 310 313 313 314 316 317 318 318 317 318 325 325 326 327 328 327 326 323 324 329 334 334 334 335 336 338
315 315 312 311 309 308 306 306 305 304 304 304 301 300 300 303 308 309 309 311 311 313 315 318 317 317 316 317 320 325 324 324 325 326 324 323 324 329 330 330 331 331 331
316 314 313 311 309 308 306 305 305 304 303 304 304 303 299 301 305 306 307 308 309 310 311 313 316 317 316 315 321 322 323 322 326 324 324 324 324 326 325 326 329 329 329
316 315 313 311 310 308 306 307 309 305 303 302 303 306 310 310 304 300 304 305 307 309 309 311 313 315 315 315 320 323 323 322 321 321 321 322 323 323 325 324 324 328 329
314 316 313 312 309 309 308 307 308 305 304 303 302 303 303 303 306 301 298 303 306 308 308 310 311 311 315 316 315 319 323 323 321 320 321 321 321 321 321 325 322 323 327
312 313 314 312 311 309 309 309 309 306 305 304 304 303 302 301 301 300 299 299 300 305 308 309 310 310 312 314 320 323 321 320 319 318 318 319 321 322 320 321 323 321 325
312 312 311 311 310 311 311 310 309 308 307 305 304 304 304 302 303 303 301 300 299 302 305 307 309 310 312 312 316 322 322 319 317 316 316 316 317 318 319 319 320 320 320
313 314 312 312 312 313 313 313 313 309 309 309 305 305 305 304 303 303 302 300 298 298 301 304 307 309 310 311 315 322 316 321 318 317 315 315 316 317 317 318 318 317 317
314 314 314 314 312 313 312 313 312 309 309 309 311 307 305 305 304 304 303 304 301 296 296 302 304 308 310 310 314 313 311 317 320 318 316 316 316 316 317 317 317 317 316
313 314 315 315 313 313 312 311 310 310 309 308 309 308 306 306 304 304 305 303 304 301 297 300 303 305 308 313 313 314 311 318 321 320 319 317 316 316 316 316 316 316 316
314 315 315 315 314 314 313 310 310 310 310 310 309 308 308 308 306 305 305 303 302 302 299 301 303 305 305 306 308 309 310 310 311 318 320 319 317 316 316 316 315 315 314
315 315 315 315 315 315 314 312 311 313 311 311 310 309 308 311 307 306 305 304 303 302 301 299 300 302 303 305 308 306 309 313 310 316 318 318 317 316 314 314 314 314 313
316 315 316 315 315 315 314 314 313 313 312 312 312 310 311 309 307 307 306 305 303 304 302 300 299 300 302 303 303 305 306 306 310 316 317 317 317 316 315 314 313 312 311
315 314 314 315 316 317 316 316 316 314 313 314 313 313 312 310 309 309 308 307 305 302 301 300 299 299 300 302 301 301 301 300 302 307 312 314 315 316 316 314 314 313 310
316 316 315 315 316 316 318 317 318 317 314 314 314 314 314 315 317 315 311 308 304 303 302 300 299 298 298 299 299 299 299 299 301 302 301 303 304 306 309 314 315 316 312
315 315 315 316 317 318 314 313 316 318 317 315 315 316 316 317 318 317 316 316 312 307 303 301 300 299 300 300 300 300 298 297 297 301 300 302 303 302 304 305 310 311 310
314 314 315 316 316 319 312 310 311 316 317 317 316 316 316 319 317 318 316 314 314 311 312 307 305 303 303 304 302 301 299 298 298 301 300 299 300 300 303 306 308 308 307
313 314 315 318 317 320 312 308 308 313 317 317 317 316 316 316 317 315 315 314 314 313 311 311 309 309 308 309 309 309 303 300 300 301 302 297 300 301 300 300 306 306 304
315 317 319 320 319 320 311 308 308 313 314 315 317 316 316 316 312 308 312 311 313 314 314 310 309 307 305 305 309 305 302 299 299 298 300 301 299 297 297 298 300 305 305
317 318 318 318 316 316 311 307 305 310 310 310 312 313 312 311 307 305 308 309 308 311 312 313 311 308 306 307 306 308 309 304 303 298 300 300 296 296 296 296 297 300 304
Wind_Speed
5 4 4 4 4 4 5 5 5 5 6 8 7 7 7 7 7 3 2 4 3 5 5 8 10 10 11 9 8 10 10 9 12 12 11 10 11 12 11 11 10 10 11
3 4 4 4 4 4 4 4 4 5 5 5 7 8 8 7 5 1 2 4 6 5 4 7 8 8 9 7 8 12 7 8 10 11 11 10 10 12 13 13 11 10 10
5 5 4 4 3 4 5 5 6 5 5 6 6 7 6 8 7 4 4 3 5 6 4 6 6 7 7 7 7 5 8 7 5 6 10 11 11 10 12 14 13 11 11
6 5 4 4 3 4 4 4 4 5 5 5 5 5 5 5 6 6 4 4 3 2 3 3 4 3 4 4 5 4 6 5 5 8 11 12 12 14 13 14 14 10 10
5 4 3 3 3 4 4 3 3 3 3 5 5 4 5 4 5 5 6 5 5 3 2 3 5 5 5 7 8 8 9 9 9 13 15 15 14 14 14 13 11 8 10
4 3 3 4 3 4 4 3 3 3 2 4 4 3 2 2 4 5 4 4 4 4 3 3 3 4 7 6 8 8 10 11 11 14 14 17 14 14 14 13 10 8 7
4 3 3 4 3 4 3 4 3 4 4 7 4 4 3 3 9 5 5 5 6 5 5 4 3 2 3 6 6 6 8 10 10 3 6 9 14 13 12 11 10 8 9
4 3 3 3 3 3 5 4 4 3 2 4 2 1 5 6 7 4 4 5 7 5 5 4 3 3 3 2 4 3 2 6 5 5 3 4 4 12 11 11 10 9 8
4 4 3 4 3 3 2 2 2 4 3 3 5 3 3 3 5 3 5 4 7 5 5 5 4 3 3 2 4 5 3 4 11 9 5 4 4 8 8 8 8 9 8
4 4 3 4 3 1 1 2 2 2 2 3 3 2 2 3 2 5 4 4 5 6 6 4 4 4 3 2 3 6 5 3 7 1 7 5 7 6 8 8 10 3 7
3 4 3 3 3 1 2 3 2 2 0 1 1 2 2 2 3 2 4 6 4 4 4 4 3 3 4 3 3 4 3 5 6 4 6 5 5 2 9 9 9 8 3
1 2 3 3 3 2 2 2 3 2 2 2 1 1 2 1 4 2 3 4 4 6 4 4 3 3 4 4 6 8 5 4 4 4 3 2 3 3 3 6 8 4 8
2 5 4 4 3 3 4 3 2 3 4 3 2 2 2 3 2 2 2 4 3 4 4 2 3 3 4 4 5 9 7 6 5 5 4 3 4 3 3 3 2 2 3
4 5 6 5 5 5 5 4 3 4 5 4 5 4 3 4 3 3 2 1 4 3 3 5 3 3 3 4 6 9 5 8 7 5 5 5 7 6 5 6 5 3 3
3 6 5 6 6 6 7 5 4 5 4 5 5 5 4 5 4 4 3 3 3 3 3 4 3 4 3 4 6 5 5 9 11 8 7 8 10 8 8 8 8 8 8
4 5 6 5 5 7 6 5 5 6 5 5 4 6 5 4 5 4 4 3 3 4 4 4 4 4 4 4 7 6 6 10 11 11 10 11 11 11 11 10 11 10 10
7 7 7 7 6 6 6 6 7 8 7 7 6 6 8 6 5 5 4 3 3 3 4 4 4 3 4 5 5 4 5 5 5 12 13 14 14 11 12 13 12 12 12
6 7 7 7 7 7 7 7 7 7 8 9 9 7 9 6 7 6 5 6 5 4 4 6 3 3 5 5 5 4 5 4 5 12 14 15 15 14 16 14 13 13 12
7 7 7 7 7 8 7 8 7 8 9 10 10 9 11 8 7 6 6 6 5 4 4 4 4 2 3 2 2 3 4 5 4 12 14 14 12 15 17 15 14 14 13
7 7 8 8 8 8 8 9 9 9 10 10 10 10 11 10 11 9 8 8 6 5 4 4 4 4 3 3 2 2 3 2 4 3 7 8 9 13 15 15 17 17 16
8 8 8 8 7 7 7 10 10 11 10 11 11 11 11 13 17 14 7 8 7 6 5 5 4 3 3 3 4 2 3 2 3 3 2 2 2 3 6 11 15 18 16
8 7 8 9 10 7 12 15 14 11 13 10 14 11 10 12 14 17 20 19 13 9 10 6 4 5 5 5 3 3 3 2 2 2 2 5 3 5 4 5 12 13 11
6 8 9 8 9 10 14 17 17 9 9 11 10 15 9 10 13 10 10 15 12 18 18 10 10 8 6 6 5 4 5 4 5 4 3 4 2 4 5 4 9 10 10
8 8 8 8 5 9 16 15 12 6 9 12 12 13 11 12 9 9 4 6 9 8 12 10 10 12 11 9 8 4 5 4 3 4 4 4 2 4 2 3 7 7 7
6 6 7 9 8 11 13 15 9 7 7 10 11 10 10 11 12 14 5 8 10 11 12 18 16 18 16 12 5 2 4 3 4 4 4 4 2 2 1 2 4 9 10
6 5 8 7 9 9 12 13 6 3 5 6 9 8 11 10 14 11 4 6 9 11 7 5 6 11 13 10 11 11 7 7 4 3 4 5 1 2 4 3 2 2 2
Wind_Direction
15 357 11 348 21 19 16 357 352 351 339 340 346 350 336 326 327 339 303 0 114 83 33 10 350 338 314 268 278 267 287 260 235 232 241 243 224 233 238 234 237 241 237
27 23 11 353 28 29 1 347 356 341 332 335 342 342 334 327 320 32 56 16 106 100 59 22 19 13 360 343 300 273 272 302 252 239 238 240 232 228 232 236 230 229 237
42 48 26 14 26 22 12 3 357 349 352 353 349 339 338 343 29 22 73 48 34 50 63 26 16 2 7 350 342 328 314 263 335 301 236 229 226 224 226 232 231 228 225
54 49 37 22 21 21 20 1 358 351 355 351 332 326 340 355 21 14 30 35 39 22 32 41 3 358 338 331 331 14 9 4 334 333 320 258 222 218 224 222 223 226 218
65 75 43 21 33 33 20 358 351 2 344 330 315 336 343 16 8 16 21 29 28 11 6 351 335 314 304 293 255 268 298 318 322 309 311 282 244 222 217 209 202 206 206
88 83 57 45 50 30 10 3 15 334 301 310 322 338 321 3 18 15 4 9 1 12 353 355 344 306 305 298 297 287 296 287 289 304 324 252 252 221 205 189 183 182 160
121 94 57 59 69 39 356 8 352 349 323 350 3 355 334 344 27 7 355 346 345 339 335 342 335 339 316 298 294 300 326 315 273 263 3 19 338 223 198 178 173 168 143
131 109 97 71 91 52 17 18 29 348 325 13 16 337 2 336 355 358 350 352 340 328 329 326 317 330 335 287 239 236 30 22 20 12 238 192 48 339 215 179 164 157 141
133 114 119 108 130 84 20 332 19 49 360 325 18 85 8 351 322 314 343 338 338 325 317 317 308 296 322 330 261 242 170 59 54 22 357 22 64 25 4 348 170 153 134
149 133 137 114 138 108 22 306 7 44 65 9 344 15 265 241 308 322 308 317 318 316 315 311 298 295 284 295 321 239 208 104 94 108 298 0 350 34 351 311 336 191 150
166 166 166 141 127 208 248 265 328 357 312 155 182 331 326 281 241 227 295 323 316 305 291 298 272 273 271 251 239 246 200 178 164 188 250 223 235 333 358 307 304 333 268
222 258 228 169 195 208 245 243 257 252 254 255 236 240 218 255 303 305 289 289 272 300 312 325 302 281 266 240 244 235 199 195 175 190 233 319 245 192 216 255 247 247 306
240 240 237 213 215 227 217 205 245 262 251 247 248 268 235 237 227 232 260 286 292 299 315 293 275 273 273 255 243 254 231 203 190 220 241 250 256 244 257 282 249 240 250
203 222 231 240 219 229 244 219 209 243 248 246 255 232 256 259 229 207 217 235 312 304 312 268 282 262 276 267 253 253 253 238 233 229 243 247 247 232 232 239 240 254 279
241 224 239 231 246 242 242 244 251 245 235 249 251 245 233 255 250 246 225 206 202 290 291 302 294 285 269 251 252 254 255 257 232 235 238 228 242 244 241 232 237 234 238
250 263 268 255 266 263 268 257 255 260 253 263 255 250 250 242 245 247 249 234 215 210 250 222 268 266 274 264 260 248 236 248 243 231 233 241 231 227 237 237 239 239 238
236 248 255 261 258 261 267 250 250 255 254 257 253 245 257 241 244 244 242 234 235 193 233 285 246 269 276 264 265 260 236 240 250 255 247 244 239 231 233 231 235 238 238
239 242 250 254 259 254 255 249 250 251 246 258 253 239 249 248 242 235 224 231 225 217 208 263 268 282 248 256 243 237 245 238 241 262 261 258 242 227 233 227 228 236 246
239 249 247 249 257 258 260 262 249 257 256 251 253 246 248 231 242 237 226 232 226 223 208 226 269 267 278 287 302 271 253 256 242 249 250 253 250 228 236 232 235 229 230
238 249 248 244 246 253 257 263 263 262 259 261 254 247 244 230 233 235 234 228 223 223 216 216 241 260 244 287 268 248 296 289 283 265 263 255 255 239 235 231 232 232 230
238 241 254 257 254 251 254 253 255 256 256 262 259 252 250 246 252 244 226 232 209 222 219 235 241 217 252 265 233 226 241 243 279 242 271 260 245 256 253 243 240 238 232
252 253 262 259 267 265 262 262 266 272 273 293 295 280 257 258 251 260 257 231 211 211 222 211 228 233 235 214 215 221 213 233 283 220 186 293 181 255 251 229 242 235 221
263 262 265 270 266 278 280 271 276 280 280 269 267 268 262 249 244 247 260 268 251 232 225 211 226 225 242 220 189 217 217 209 225 250 158 275 181 261 232 253 221 209 216
255 263 276 277 290 284 270 280 275 294 290 283 276 275 264 264 265 249 231 265 263 239 235 230 224 245 232 241 210 214 211 216 272 255 158 238 231 247 313 267 232 206 226
303 282 278 287 260 282 283 302 338 315 287 287 289 273 258 271 252 244 225 252 268 246 232 230 227 232 227 228 212 156 239 189 261 261 209 177 253 262 279 262 229 235 232
277 289 291 280 280 281 294 304 337 286 303 310 310 297 289 286 271 268 250 279 268 255 242 201 221 246 244 245 219 219 232 216 204 308 234 165 194 122 323 270 281 249 262